When you browse on this site, cookies collect data to enhance your experience and personalize the content and advertising you see.
Visit our Privacy Policy to learn more. By continuing to use the site, you agree to this use of cookies and data.
  • Em Portugal
  • Lista de países
  • Para 7 dias
  • Temperatura da água
  • Mapas de satélite
  • Mapa do tempo
  • Widgets de tempo
  • user-avatar
    Iniciar Sessão

    Previsão horária em Boma

    Hoje, 25 Março, Segunda-feira

    Tempo Temperatura Precipitação Vento Pressão Humidade
    00:00 +24°C° 0 mm 2 m/s 699 mmHg 90%
    01:00 +24°C° 0 mm 1 m/s 700 mmHg 93%
    02:00 +23°C° 0 mm 1 m/s 699 mmHg 94%
    03:00 +23°C° 0 mm 1 m/s 699 mmHg 96%
    04:00 +23°C° 0 mm 1 m/s 699 mmHg 97%
    05:00 +23°C° 0 mm 1 m/s 699 mmHg 96%
    06:00 +23°C° 0 mm 1 m/s 700 mmHg 95%
    07:00 +23°C° 0 mm 1 m/s 700 mmHg 93%
    08:00 +25°C° 0 mm 1 m/s 701 mmHg 86%
    09:00 +26°C° 0 mm 1 m/s 701 mmHg 79%
    10:00 +27°C° 0 mm 1 m/s 701 mmHg 71%
    11:00 +30°C° 0 mm 1 m/s 701 mmHg 61%
    12:00 +32°C° 0 mm 1 m/s 701 mmHg 51%
    13:00 +34°C° 0 mm 1 m/s 700 mmHg 42%
    14:00 +34°C° 0 mm 1 m/s 700 mmHg 42%
    15:00 +34°C° 0 mm 1 m/s 699 mmHg 41%
    16:00 +34°C° 0 mm 1 m/s 698 mmHg 40%
    17:00 +32°C° 0 mm 1 m/s 698 mmHg 47%
    18:00 +30°C° 0 mm 1 m/s 698 mmHg 54%
    19:00 +27°C° 0 mm 1 m/s 698 mmHg 61%
    20:00 +27°C° 0 mm 1 m/s 698 mmHg 64%
    21:00 +26°C° 0 mm 1 m/s 699 mmHg 67%
    22:00 +25°C° 0 mm 1 m/s 699 mmHg 70%
    23:00 +25°C° 0 mm 1 m/s 699 mmHg 74%

    Amanhã, 26 Março, Terça-feira

    Tempo Temperatura Precipitação Vento Pressão Humidade
    00:00 +25°C° 0 mm 1 m/s 699 mmHg 79%
    01:00 +24°C° 0 mm 2 m/s 699 mmHg 83%
    02:00 +24°C° 0 mm 1 m/s 699 mmHg 87%
    03:00 +23°C° 0 mm 1 m/s 699 mmHg 91%
    04:00 +23°C° 0 mm 1 m/s 699 mmHg 95%
    05:00 +23°C° 0 mm 1 m/s 699 mmHg 94%
    06:00 +23°C° 0 mm 1 m/s 699 mmHg 93%
    07:00 +23°C° 0 mm 1 m/s 700 mmHg 91%
    08:00 +24°C° 0 mm 1 m/s 700 mmHg 86%
    09:00 +25°C° 0 mm 1 m/s 701 mmHg 80%
    10:00 +26°C° 0 mm 1 m/s 702 mmHg 75%
    11:00 +30°C° 0 mm 1 m/s 701 mmHg 62%
    12:00 +33°C° 0 mm 1 m/s 701 mmHg 50%
    13:00 +36°C° 0 mm 1 m/s 700 mmHg 38%
    14:00 +36°C° 0 mm 1 m/s 699 mmHg 37%
    15:00 +36°C° 0 mm 1 m/s 699 mmHg 35%
    16:00 +36°C° 0 mm 1 m/s 698 mmHg 34%
    17:00 +33°C° 0 mm 1 m/s 698 mmHg 40%
    18:00 +31°C° 0 mm 1 m/s 698 mmHg 47%
    19:00 +28°C° 0 mm 1 m/s 698 mmHg 53%
    20:00 +25°C° 0 mm 0 m/s 699 mmHg 55%
    21:00 +24°C° 0 mm 0 m/s 699 mmHg 56%
    22:00 +24°C° 0 mm 0 m/s 700 mmHg 58%
    23:00 +23°C° 0 mm 0 m/s 700 mmHg 61%

    Depois de amanhã, 27 Março, Quarta-feira

    Tempo Temperatura Precipitação Vento Pressão Humidade
    00:00 +23°C° 0 mm 0 m/s 700 mmHg 64%
    01:00 +22°C° 0 mm 0 m/s 700 mmHg 67%
    02:00 +22°C° 0 mm 0 m/s 700 mmHg 71%
    03:00 +21°C° 0 mm 0 m/s 700 mmHg 75%
    04:00 +21°C° 0 mm 0 m/s 700 mmHg 80%
    05:00 +21°C° 0 mm 0 m/s 700 mmHg 83%
    06:00 +21°C° 0 mm 0 m/s 701 mmHg 85%
    07:00 +21°C° 0 mm 0 m/s 701 mmHg 88%
    08:00 +24°C° 0 mm 0 m/s 702 mmHg 79%
    09:00 +28°C° 0 mm 1 m/s 702 mmHg 70%
    10:00 +30°C° 0 mm 1 m/s 703 mmHg 61%
    11:00 +32°C° 0 mm 1 m/s 702 mmHg 52%
    12:00 +32°C° 0 mm 0 m/s 702 mmHg 43%
    13:00 +35°C° 0 mm 0 m/s 701 mmHg 34%
    14:00 +35°C° 0 mm 0 m/s 700 mmHg 32%
    15:00 +37°C° 0 mm 1 m/s 700 mmHg 30%
    16:00 +37°C° 0 mm 1 m/s 699 mmHg 29%
    17:00 +34°C° 0 mm 1 m/s 699 mmHg 35%
    18:00 +32°C° 0 mm 1 m/s 700 mmHg 42%
    19:00 +29°C° 0 mm 1 m/s 700 mmHg 49%
    20:00 +28°C° 0 mm 1 m/s 700 mmHg 54%
    21:00 +25°C° 0 mm 0 m/s 700 mmHg 59%
    22:00 +24°C° 0 mm 0 m/s 700 mmHg 64%
    23:00 +24°C° 0 mm 0 m/s 700 mmHg 65%

    28 Março, Quinta-feira

    Tempo Temperatura Precipitação Vento Pressão Humidade
    00:00 +23°C° 0 mm 0 m/s 700 mmHg 67%
    01:00 +23°C° 0 mm 0 m/s 700 mmHg 68%
    02:00 +23°C° 0 mm 0 m/s 700 mmHg 69%
    03:00 +22°C° 0 mm 0 m/s 700 mmHg 71%
    04:00 +22°C° 0 mm 0 m/s 699 mmHg 73%
    05:00 +22°C° 0 mm 0 m/s 700 mmHg 72%
    06:00 +22°C° 0 mm 0 m/s 700 mmHg 72%
    07:00 +23°C° 0 mm 0 m/s 701 mmHg 71%
    08:00 +26°C° 0 mm 0 m/s 702 mmHg 62%
    09:00 +31°C° 0 mm 1 m/s 702 mmHg 53%
    10:00 +34°C° 0 mm 1 m/s 703 mmHg 43%
    11:00 +35°C° 0 mm 1 m/s 703 mmHg 39%
    12:00 +37°C° 0 mm 1 m/s 702 mmHg 35%
    13:00 +39°C° 0 mm 1 m/s 701 mmHg 32%
    14:00 +37°C° 0 mm 1 m/s 701 mmHg 37%
    15:00 +35°C° 0 mm 1 m/s 700 mmHg 42%
    16:00 +33°C° 0 mm 1 m/s 699 mmHg 47%
    17:00 +31°C° 0 mm 1 m/s 699 mmHg 52%
    18:00 +30°C° 0 mm 1 m/s 699 mmHg 58%
    19:00 +27°C° 0 mm 0 m/s 700 mmHg 63%
    20:00 +27°C° 3.2 mm 1 m/s 700 mmHg 73%
    21:00 +26°C° 3.2 mm 1 m/s 701 mmHg 83%
    22:00 +24°C° 3.2 mm 1 m/s 701 mmHg 93%
    23:00 +24°C° 0 mm 1 m/s 701 mmHg 92%

    29 Março, Sexta-feira

    Tempo Temperatura Precipitação Vento Pressão Humidade
    00:00 +22°C° 0 mm 0 m/s 700 mmHg 90%
    01:00 +22°C° 0 mm 0 m/s 700 mmHg 89%
    02:00 +22°C° 0 mm 0 m/s 699 mmHg 90%
    03:00 +22°C° 0 mm 0 m/s 699 mmHg 91%
    04:00 +21°C° 0 mm 0 m/s 699 mmHg 92%
    05:00 +21°C° 0 mm 0 m/s 699 mmHg 91%
    06:00 +22°C° 0 mm 0 m/s 700 mmHg 90%
    07:00 +22°C° 0 mm 0 m/s 700 mmHg 89%
    08:00 +25°C° 0 mm 0 m/s 701 mmHg 77%
    09:00 +30°C° 0 mm 1 m/s 701 mmHg 65%
    10:00 +32°C° 0 mm 1 m/s 702 mmHg 53%
    11:00 +35°C° 0 mm 1 m/s 701 mmHg 46%
    12:00 +35°C° 0 mm 0 m/s 701 mmHg 39%
    13:00 +38°C° 0 mm 0 m/s 700 mmHg 32%
    14:00 +37°C° 0 mm 0 m/s 699 mmHg 35%
    15:00 +35°C° 0 mm 0 m/s 699 mmHg 37%
    16:00 +36°C° 0 mm 1 m/s 698 mmHg 40%
    17:00 +34°C° 0 mm 1 m/s 698 mmHg 47%
    18:00 +31°C° 0 mm 1 m/s 698 mmHg 55%
    19:00 +29°C° 0 mm 1 m/s 698 mmHg 63%
    20:00 +28°C° 1.4 mm 1 m/s 698 mmHg 71%
    21:00 +26°C° 1.4 mm 1 m/s 699 mmHg 79%
    22:00 +25°C° 1.4 mm 1 m/s 699 mmHg 87%
    23:00 +25°C° 0 mm 1 m/s 699 mmHg 86%

    30 Março, Sábado

    Tempo Temperatura Precipitação Vento Pressão Humidade
    00:00 +25°C° 0 mm 1 m/s 698 mmHg 85%
    01:00 +25°C° 0 mm 1 m/s 698 mmHg 84%
    02:00 +24°C° 0.2 mm 1 m/s 698 mmHg 87%
    03:00 +24°C° 0.2 mm 1 m/s 698 mmHg 91%
    04:00 +23°C° 0.2 mm 1 m/s 698 mmHg 94%
    05:00 +24°C° 0 mm 1 m/s 699 mmHg 94%
    06:00 +22°C° 0 mm 0 m/s 699 mmHg 93%
    07:00 +22°C° 0 mm 0 m/s 700 mmHg 93%
    08:00 +27°C° 0 mm 1 m/s 700 mmHg 81%
    09:00 +29°C° 0 mm 1 m/s 701 mmHg 68%
    10:00 +32°C° 0 mm 1 m/s 701 mmHg 56%
    11:00 +34°C° 0 mm 1 m/s 700 mmHg 48%
    12:00 +35°C° 0 mm 0 m/s 700 mmHg 41%
    13:00 +37°C° 0 mm 0 m/s 699 mmHg 34%
    14:00 +40°C° 0 mm 1 m/s 699 mmHg 33%
    15:00 +39°C° 0 mm 1 m/s 698 mmHg 33%
    16:00 +37°C° 0 mm 1 m/s 697 mmHg 32%
    17:00 +35°C° 0.9 mm 2 m/s 697 mmHg 47%
    18:00 +30°C° 0.9 mm 2 m/s 698 mmHg 61%
    19:00 +27°C° 0.9 mm 3 m/s 698 mmHg 75%
    20:00 +26°C° 0.8 mm 2 m/s 698 mmHg 79%
    21:00 +25°C° 0.8 mm 1 m/s 698 mmHg 82%
    22:00 +23°C° 0.8 mm 0 m/s 698 mmHg 86%
    23:00 +24°C° 0.3 mm 1 m/s 698 mmHg 87%
    Mostrar mais